| time (UTC) | temp C | wind direction | speed KPH | gust KPH | rain 1hr cm | rain 24hr cm | rain mn cm | humidity % | barometer mb |
| 20260507192105 | 8 | 135 | 1.6 | 4.8 | 0.00 | 0.00 | 0.00 | 88 | 1017.2 |
| 20260507191111 | 8 | 91 | 1.6 | 3.2 | 0.00 | 0.00 | 0.00 | 87 | 1017.1 |
| 20260507190106 | 8 | 80 | 1.6 | 4.8 | 0.00 | 0.00 | 0.00 | 88 | 1017.0 |
| 20260507185107 | 8 | 82 | 0.0 | 0.0 | 0.00 | 0.00 | 0.00 | 89 | 1017.1 |
| 20260507184114 | 8 | 74 | 0.0 | 0.0 | 0.00 | 0.00 | 0.00 | 89 | 1017.0 |
| 20260507183113 | 8 | 39 | 3.2 | 4.8 | 0.00 | 0.00 | 0.00 | 91 | 1017.0 |
| 20260507181105 | 8 | 52 | 1.6 | 3.2 | 0.00 | 0.00 | 0.00 | 90 | 1016.9 |
| 20260507180108 | 8 | 31 | 3.2 | 4.8 | 0.00 | 0.00 | 0.00 | 91 | 1016.8 |
| 20260507173108 | 9 | 32 | 3.2 | 4.8 | 0.00 | 0.00 | 0.00 | 89 | 1016.6 |
| 20260507171106 | 9 | 21 | 3.2 | 6.4 | 0.00 | 0.00 | 0.00 | 86 | 1016.6 |
| 20260507170110 | 10 | 19 | 3.2 | 6.4 | 0.00 | 0.00 | 0.00 | 84 | 1016.5 |
| 20260507165107 | 10 | 19 | 3.2 | 6.4 | 0.00 | 0.00 | 0.00 | 83 | 1016.5 |
| 20260507164108 | 10 | 18 | 3.2 | 6.4 | 0.00 | 0.00 | 0.00 | 81 | 1016.5 |
| 20260507163101 | 10 | 16 | 4.8 | 8.0 | 0.00 | 0.00 | 0.00 | 80 | 1016.5 |
| 20260507161104 | 10 | 14 | 4.8 | 8.0 | 0.00 | 0.00 | 0.00 | 80 | 1016.6 |
| 20260507155104 | 10 | 20 | 4.8 | 8.0 | 0.00 | 0.00 | 0.00 | 79 | 1016.5 |
| 20260507153101 | 10 | 353 | 4.8 | 6.4 | 0.00 | 0.00 | 0.00 | 80 | 1016.6 |
| 20260507152101 | 10 | 341 | 4.8 | 8.0 | 0.00 | 0.00 | 0.00 | 82 | 1016.5 |
| 20260507150059 | 10 | 355 | 4.8 | 8.0 | 0.00 | 0.00 | 0.00 | 81 | 1016.6 |
| 20260507145059 | 9 | 349 | 4.8 | 8.0 | 0.00 | 0.00 | 0.00 | 82 | 1016.6 |
| 20260507144059 | 9 | 337 | 4.8 | 8.0 | 0.00 | 0.00 | 0.00 | 81 | 1016.6 |
| 20260507143059 | 9 | 337 | 4.8 | 6.4 | 0.00 | 0.00 | 0.00 | 83 | 1016.6 |
| 20260507142058 | 9 | 354 | 3.2 | 6.4 | 0.00 | 0.00 | 0.00 | 82 | 1016.6 |
| 20260507141057 | 9 | 351 | 4.8 | 9.7 | 0.00 | 0.00 | 0.00 | 81 | 1016.6 |
| 20260507135059 | 10 | 45 | 3.2 | 8.0 | 0.00 | 0.03 | 0.00 | 78 | 1016.5 |
| 20260507134059 | 10 | 101 | 3.2 | 8.0 | 0.00 | 0.03 | 0.00 | 75 | 1016.4 |
| 20260507133101 | 10 | 117 | 3.2 | 8.0 | 0.00 | 0.03 | 0.00 | 75 | 1016.4 |
| 20260507132100 | 11 | 313 | 4.8 | 12.9 | 0.00 | 0.03 | 0.00 | 77 | 1016.3 |
| 20260507130100 | 10 | 322 | 6.4 | 14.5 | 0.00 | 0.03 | 0.00 | 78 | 1016.5 |
| 20260507124101 | 9 | 47 | 6.4 | 11.3 | 0.00 | 0.03 | 0.00 | 80 | 1016.6 |
| 20260507123100 | 9 | 57 | 6.4 | 11.3 | 0.00 | 0.03 | 0.00 | 81 | 1016.6 |
| 20260507122059 | 8 | 53 | 6.4 | 9.7 | 0.00 | 0.03 | 0.00 | 81 | 1016.6 |
| 20260507121058 | 8 | 49 | 8.0 | 12.9 | 0.00 | 0.03 | 0.00 | 83 | 1016.6 |
| 20260507120058 | 8 | 37 | 9.7 | 11.3 | 0.00 | 0.03 | 0.00 | 83 | 1016.6 |
| 20260507114059 | 8 | 39 | 9.7 | 14.5 | 0.00 | 0.03 | 0.00 | 84 | 1016.6 |
| 20260507113058 | 9 | 43 | 8.0 | 14.5 | 0.00 | 0.03 | 0.00 | 82 | 1016.5 |
| 20260507112101 | 9 | 25 | 3.2 | 11.3 | 0.00 | 0.03 | 0.00 | 82 | 1016.4 |
| 20260507110058 | 8 | 300 | 4.8 | 11.3 | 0.00 | 0.03 | 0.00 | 83 | 1016.5 |
| 20260507105059 | 8 | 338 | 4.8 | 9.7 | 0.00 | 0.03 | 0.00 | 85 | 1016.5 |
| 20260507104056 | 8 | 356 | 6.4 | 11.3 | 0.00 | 0.03 | 0.00 | 87 | 1016.5 |
| 20260507095055 | 8 | 346 | 6.4 | 12.9 | 0.00 | 0.05 | 0.00 | 88 | 1016.3 |
| 20260507094057 | 8 | 354 | 4.8 | 11.3 | 0.00 | 0.05 | 0.00 | 87 | 1016.2 |
| 20260507093057 | 8 | 1 | 6.4 | 12.9 | 0.00 | 0.08 | 0.00 | 87 | 1016.2 |
| 20260507092058 | 8 | 320 | 6.4 | 11.3 | 0.00 | 0.10 | 0.00 | 88 | 1016.0 |
| 20260507091058 | 7 | 358 | 6.4 | 14.5 | 0.00 | 0.13 | 0.00 | 89 | 1016.1 |
| 20260507090059 | 7 | 3 | 8.0 | 14.5 | 0.00 | 0.15 | 0.00 | 90 | 1016.1 |
| 20260507085058 | 7 | 3 | 8.0 | 12.9 | 0.00 | 0.18 | 0.00 | 92 | 1016.1 |
| 20260507084059 | 7 | 342 | 6.4 | 9.7 | 0.00 | 0.20 | 0.00 | 93 | 1016.2 |
| 20260507083100 | 6 | 344 | 4.8 | 9.7 | 0.00 | 0.23 | 0.00 | 92 | 1016.1 |
| 20260507081100 | 6 | 351 | 4.8 | 11.3 | 0.00 | 0.28 | 0.00 | 94 | 1016.1 |
| 20260507080055 | 6 | 4 | 4.8 | 14.5 | 0.00 | 0.30 | 0.00 | 95 | 1016.1 |
| 20260507075100 | 6 | 12 | 6.4 | 11.3 | 0.00 | 0.33 | 0.00 | 96 | 1015.9 |
| 20260507072057 | 5 | 345 | 6.4 | 12.9 | 0.00 | 0.38 | 0.00 | 98 | 1015.8 |
| 20260507071058 | 5 | 349 | 4.8 | 8.0 | 0.00 | 0.41 | 0.00 | 98 | 1015.8 |
| 20260507070057 | 5 | 318 | 6.4 | 11.3 | 0.00 | 0.41 | 0.00 | 99 | 1015.7 |
| 20260507065055 | 5 | 316 | 4.8 | 9.7 | 0.00 | 0.43 | 0.00 | 99 | 1015.6 |
| 20260507064056 | 5 | 335 | 4.8 | 9.7 | 0.00 | 0.43 | 0.00 | 99 | 1015.5 |
| 20260507063053 | 5 | 338 | 4.8 | 8.0 | 0.00 | 0.43 | 0.00 | 10 | 1015.5 |
| 20260507060056 | 5 | 8 | 6.4 | 11.3 | 0.00 | 0.43 | 0.00 | 10 | 1015.3 |
| 20260507055051 | 5 | 6 | 6.4 | 9.7 | 0.00 | 0.43 | 0.00 | 10 | 1015.2 |
| 20260507054056 | 5 | 14 | 6.4 | 11.3 | 0.00 | 0.43 | 0.00 | 10 | 1015.2 |
| 20260507052056 | 5 | 16 | 8.0 | 12.9 | 0.00 | 0.43 | 0.00 | 10 | 1014.9 |
| 20260507051057 | 5 | 15 | 8.0 | 14.5 | 0.00 | 0.43 | 0.00 | 10 | 1014.7 |
| 20260507050055 | 5 | 11 | 8.0 | 11.3 | 0.00 | 0.43 | 0.00 | 10 | 1014.6 |
| 20260507045056 | 5 | 16 | 8.0 | 11.3 | 0.00 | 0.43 | 0.00 | 10 | 1014.5 |
| 20260507044058 | 5 | 18 | 6.4 | 12.9 | 0.00 | 0.46 | 0.00 | 10 | 1014.5 |
| 20260507043056 | 5 | 16 | 6.4 | 8.0 | 0.00 | 0.46 | 0.00 | 10 | 1014.4 |
| 20260507042057 | 4 | 20 | 6.4 | 11.3 | 0.00 | 0.46 | 0.00 | 10 | 1014.3 |
| 20260507041055 | 4 | 20 | 6.4 | 12.9 | 0.00 | 0.46 | 0.00 | 10 | 1014.2 |
| 20260507040058 | 4 | 18 | 6.4 | 11.3 | 0.00 | 0.48 | 0.00 | 10 | 1014.2 |
| 20260507035056 | 4 | 17 | 6.4 | 11.3 | 0.00 | 0.48 | 0.00 | 10 | 1014.1 |
| 20260507034056 | 4 | 21 | 6.4 | 9.7 | 0.00 | 0.48 | 0.00 | 10 | 1014.0 |
| 20260507033055 | 4 | 12 | 4.8 | 8.0 | 0.00 | 0.48 | 0.00 | 10 | 1014.0 |
| 20260507032057 | 4 | 19 | 6.4 | 8.0 | 0.00 | 0.48 | 0.00 | 10 | 1014.0 |
| 20260507031055 | 4 | 19 | 6.4 | 11.3 | 0.00 | 0.51 | 0.00 | 10 | 1013.9 |
| 20260507025054 | 4 | 20 | 6.4 | 9.7 | 0.00 | 0.51 | 0.00 | 10 | 1013.7 |
| 20260507024054 | 4 | 33 | 6.4 | 12.9 | 0.00 | 0.51 | 0.00 | 10 | 1013.7 |
| 20260507023057 | 5 | 32 | 9.7 | 14.5 | 0.00 | 0.51 | 0.00 | 10 | 1013.7 |
| 20260507022057 | 5 | 40 | 8.0 | 12.9 | 0.00 | 0.51 | 0.00 | 10 | 1013.6 |
| 20260507021056 | 5 | 35 | 8.0 | 12.9 | 0.00 | 0.51 | 0.00 | 10 | 1013.4 |
| 20260507020055 | 5 | 12 | 8.0 | 16.1 | 0.00 | 0.53 | 0.00 | 10 | 1013.3 |
| 20260507013054 | 5 | 10 | 9.7 | 16.1 | 0.00 | 0.56 | 0.00 | 10 | 1013.3 |
| 20260507012053 | 5 | 18 | 9.7 | 16.1 | 0.00 | 0.56 | 0.00 | 10 | 1013.3 |
| 20260507011057 | 5 | 20 | 8.0 | 14.5 | 0.00 | 0.58 | 0.00 | 10 | 1013.2 |
| 20260507010059 | 5 | 16 | 11.3 | 17.7 | 0.00 | 0.58 | 0.00 | 10 | 1013.2 |
| 20260507005055 | 5 | 20 | 9.7 | 14.5 | 0.00 | 0.58 | 0.00 | 10 | 1013.2 |
| 20260507004057 | 5 | 18 | 11.3 | 17.7 | 0.00 | 0.58 | 0.00 | 10 | 1013.2 |
| 20260507003055 | 5 | 8 | 9.7 | 16.1 | 0.00 | 0.58 | 0.00 | 10 | 1013.0 |
| 20260507002056 | 5 | 9 | 9.7 | 14.5 | 0.00 | 0.58 | 0.00 | 10 | 1012.9 |
| 20260507001055 | 5 | 14 | 8.0 | 12.9 | 0.00 | 0.58 | 0.00 | 10 | 1012.9 |
| 20260506234104 | 5 | 8 | 8.0 | 16.1 | 0.00 | 0.61 | 0.00 | 10 | 1012.8 |
| 20260506233103 | 5 | 14 | 8.0 | 14.5 | 0.00 | 0.61 | 0.00 | 10 | 1012.8 |
| 20260506232101 | 5 | 10 | 6.4 | 11.3 | 0.00 | 0.61 | 0.00 | 10 | 1012.8 |
| 20260506231102 | 5 | 22 | 9.7 | 14.5 | 0.00 | 0.61 | 0.00 | 10 | 1012.7 |
| 20260506230105 | 5 | 21 | 11.3 | 17.7 | 0.00 | 0.64 | 0.00 | 10 | 1012.6 |
| 20260506225101 | 5 | 25 | 9.7 | 14.5 | 0.00 | 0.64 | 0.00 | 10 | 1012.7 |
| 20260506223100 | 5 | 18 | 8.0 | 14.5 | 0.00 | 0.69 | 0.00 | 10 | 1012.6 |
| 20260506222104 | 5 | 9 | 6.4 | 11.3 | 0.00 | 0.71 | 0.00 | 99 | 1012.4 |
| 20260506221102 | 5 | 4 | 6.4 | 11.3 | 0.00 | 0.71 | 0.00 | 99 | 1012.3 |
| 20260506220112 | 5 | 5 | 6.4 | 12.9 | 0.00 | 0.71 | 0.00 | 99 | 1012.2 |
| 20260506215109 | 5 | 352 | 6.4 | 14.5 | 0.00 | 0.74 | 0.71 | 99 | 1012.1 |
| 20260506214108 | 5 | 358 | 8.0 | 14.5 | 0.00 | 0.74 | 0.71 | 99 | 1012.0 |
| 20260506213108 | 5 | 244 | 6.4 | 11.3 | 0.00 | 0.76 | 0.71 | 99 | 1012.0 |
| 20260506212107 | 5 | 9 | 6.4 | 12.9 | 0.00 | 0.79 | 0.71 | 99 | 1012.0 |
| 20260506211106 | 5 | 8 | 9.7 | 16.1 | 0.00 | 0.79 | 0.71 | 99 | 1011.9 |
| 20260506205106 | 5 | 18 | 11.3 | 17.7 | 0.00 | 0.79 | 0.71 | 99 | 1011.9 |
| 20260506204105 | 5 | 24 | 9.7 | 16.1 | 0.00 | 0.79 | 0.71 | 99 | 1011.8 |
| 20260506203108 | 5 | 24 | 8.0 | 14.5 | 0.00 | 0.79 | 0.71 | 98 | 1011.7 |
| 20260506202109 | 5 | 22 | 9.7 | 14.5 | 0.00 | 0.81 | 0.71 | 98 | 1011.6 |
| 20260506201109 | 5 | 20 | 9.7 | 14.5 | 0.00 | 0.84 | 0.71 | 98 | 1011.4 |
| 20260506200108 | 5 | 18 | 11.3 | 14.5 | 0.00 | 0.89 | 0.71 | 98 | 1011.3 |
| 20260506195106 | 5 | 17 | 8.0 | 12.9 | 0.00 | 0.91 | 0.71 | 98 | 1011.3 |
| 20260506193108 | 5 | 18 | 6.4 | 11.3 | 0.00 | 0.94 | 0.71 | 97 | 1011.2 |